Regional Weather Roundup
Issued by NWS

Home | Current Version | Previous Version | Text Only | Print | Product List | Glossary On
Versions: 1 2 3 4 5 6 7 8 9 10 11 12 13 14 15 16 17 18 19 20 21 22 23 24 25 26 27 28 29 30 31 32 33 34 35 36 37 38 39 40 41 42 43 44 45 46 47 48 49 50
000
ASUS44 KBMX 271310
RWRAL

ALABAMA REGIONAL WEATHER ROUNDUP
NATIONAL WEATHER SERVICE BIRMINGHAM AL
700 AM CST FRI FEB 27 2015

NOTE: "FAIR" INDICATES FEW OR NO CLOUDS BELOW 12,000 FEET
WITH NO SIGNIFICANT WEATHER AND/OR OBSTRUCTIONS TO VISIBILITY.

THE REMARK "TC" DENOTES TEMPERATURE IN DEGREES CELSIUS.

ALZ001>011-014-016>018-020-271400-
NORTH ALABAMA

CITY           SKY/WX    TMP DP  RH WIND       PRES   REMARKS
MUSCLE SHOALS  PTCLDY    23  11  60 N9        30.50R WCI  13
HUNTSVILLE     CLOUDY    27  17  66 N9        30.46R WCI  18
DECATUR        CLOUDY    25  17  72 MISG      30.47R
HALEYVILLE       N/A     22  14  71 N8        30.46R WCI  13
GADSDEN        CLOUDY    28  19  69 N12       30.41R WCI  18
$$

ALZ012-013-022-023-030>036-040>044-271400-
WEST CENTRAL ALABAMA

CITY           SKY/WX    TMP DP  RH WIND       PRES   REMARKS
TUSCALOOSA     CLOUDY    31  22  69 N17       30.46R WCI  19
$$

ALZ015-024>027-033>036-040>044-271400-
CENTRAL ALABAMA

CITY           SKY/WX    TMP DP  RH WIND       PRES   REMARKS
BIRMINGHAM     CLOUDY    29  23  78 N10       30.43R WCI  20
MONTGOMERY     CLEAR     33  26  75 N8        30.40R WCI  26
SHELBY CO ARPT MOCLDY    31  23  72 N3        30.40R
MAXWELL AFB    CLEAR     32  26  80 N10G18    30.39R WCI  24
GREENVILLE     FAIR      31  27  85 N7        30.37  WCI  24
$$

ALZ019-021-028-029-037-038-045>048-271400-
EAST CENTRAL ALABAMA

CITY           SKY/WX    TMP DP  RH WIND       PRES   REMARKS
ANNISTON       CLOUDY    30  22  72 N7        30.41R WCI  23
ALEXANDER CITY CLEAR     34  27  74 N9        30.38R WCI  27
AUBURN         CLEAR     28  23  80 N12G17    30.37R WCI  18
$$

ALZ051>064-271400-
SOUTHWEST ALABAMA

CITY           SKY/WX    TMP DP  RH WIND       PRES   REMARKS
MOBILE         PTCLDY    30  28  92 N12       30.38R FOG     WCI  20
BROOKLEY FIELD CLEAR     34  30  85 N8        30.39R WCI  27
EVERGREEN      CLEAR     31  28  89 N6        30.39R WCI  25
$$

ALZ049-050-065>069-271400-
SOUTHEAST ALABAMA

CITY           SKY/WX    TMP DP  RH WIND       PRES   REMARKS
DOTHAN         PTCLDY    34  30  85 N13       30.34R WCI  25
OZARK          PTCLDY    34  29  84 N15       30.32R WCI  24
TROY           CLEAR     31  28  89 N6        30.37R WCI  25
EUFAULA        FAIR      34  29  82 NW3       30.35R
$$


USA.gov is the U.S. government's official web portal to all federal, state and local government web resources and services.